Location: Castiglione Fibocchi
(43.5333°N, 11.7667°E)
Time: 09:20:46
(UTC+00:00)

CZ-2D R/B - Pass Details

Date: 15 August 2020
Orbit: 552 x 639 km, 97.9° (Epoch: 19 September)

Event Time Altitude Azimuth Distance (km) Brightness Sun altitude
Rises 03:04:39 0° 3° (N) 2,761 7.4 -12.7°
Reaches altitude 10° 03:06:58 10° 353° (N) 1,852 6.4 -12.3°
Maximum altitude 03:10:29 31° 291° (WNW) 984 4.3 -11.8°
Enters shadow 03:12:53 17° 238° (WSW) 1,439 4.8 -11.4°
